Location: Saint-Gilles les Bains
(21.0539°S, 55.2287°E)
Time: 07:23:57
(UTC+04:00)

Hubble Space Telescope - Pass Details

Date: 25 June 2021
Orbit: 535 x 539 km, 28.5° (Epoch: 28 July)

Event Time Altitude Azimuth Distance (km) Brightness Sun altitude
Rises 19:57:22 0° 323° (NW) 2,659 5.1 -29.3°
Reaches altitude 10° 20:00:01 10° 339° (NNW) 1,775 3.8 -29.9°
Enters shadow 20:00:35 13° 345° (NNW) 1,618 3.5 -30.0°
